TimeMDT,TemperatureF,Dew PointF,Humidity,Sea Level PressureIn,VisibilityMPH,Wind Direction,Wind SpeedMPH,Gust SpeedMPH,PrecipitationIn,Events,Conditions,WindDirDegrees,DateUTC
12:53 AM,64.0,57.9,80,29.72,10.0,East,3.5,-,N/A,,Clear,80,2013-09-14 06:53:00
1:53 AM,63.0,57.0,81,29.72,10.0,ESE,4.6,-,N/A,,Clear,120,2013-09-14 07:53:00
2:53 AM,61.0,55.9,83,29.72,10.0,Calm,Calm,-,N/A,,Clear,0,2013-09-14 08:53:00
3:53 AM,62.1,57.0,84,29.72,10.0,NNE,4.6,-,N/A,,Clear,30,2013-09-14 09:53:00
4:53 AM,61.0,57.0,87,29.72,10.0,Calm,Calm,-,N/A,,Clear,0,2013-09-14 10:53:00
5:53 AM,61.0,57.0,87,29.74,10.0,Calm,Calm,-,N/A,,Scattered Clouds,0,2013-09-14 11:53:00
6:53 AM,60.1,57.0,90,29.76,10.0,Calm,Calm,-,N/A,,Overcast,0,2013-09-14 12:53:00
7:53 AM,63.0,59.0,87,29.78,10.0,Calm,Calm,-,N/A,,Mostly Cloudy,0,2013-09-14 13:53:00
8:53 AM,71.1,55.0,57,29.79,10.0,NNE,12.7,17.3,N/A,,Mostly Cloudy,30,2013-09-14 14:53:00
9:53 AM,71.1,54.0,55,29.82,10.0,NNE,20.7,27.6,N/A,,Partly Cloudy,30,2013-09-14 15:53:00
10:53 AM,72.0,54.0,53,29.84,10.0,NNE,20.7,26.5,N/A,,Partly Cloudy,30,2013-09-14 16:53:00
11:53 AM,73.9,54.0,50,29.86,10.0,NE,18.4,27.6,N/A,,Clear,40,2013-09-14 17:53:00
12:53 PM,79.0,54.0,42,29.87,10.0,NE,21.9,28.8,N/A,,Clear,50,2013-09-14 18:53:00
1:53 PM,79.0,50.0,36,29.90,10.0,NE,20.7,31.1,N/A,,Clear,40,2013-09-14 19:53:00
2:53 PM,78.1,46.0,32,29.93,10.0,NE,24.2,33.4,N/A,,Clear,40,2013-09-14 20:53:00
3:53 PM,77.0,44.1,31,29.95,10.0,NE,23.0,29.9,N/A,,Scattered Clouds,50,2013-09-14 21:53:00
4:53 PM,78.1,45.0,31,29.97,10.0,ENE,19.6,27.6,N/A,,Clear,60,2013-09-14 22:53:00
5:53 PM,75.0,42.1,31,30.00,10.0,ENE,16.1,23.0,N/A,,Clear,60,2013-09-14 23:53:00
6:53 PM,71.1,39.9,32,30.02,10.0,NE,12.7,-,N/A,,Clear,40,2013-09-15 00:53:00
7:53 PM,62.1,41.0,46,30.06,10.0,NNE,5.8,-,N/A,,Clear,30,2013-09-15 01:53:00
8:53 PM,59.0,41.0,51,30.08,10.0,NNE,8.1,-,N/A,,Clear,30,2013-09-15 02:53:00
9:53 PM,55.0,41.0,59,30.11,10.0,Calm,Calm,-,N/A,,Clear,0,2013-09-15 03:53:00
10:53 PM,54.0,39.9,59,30.14,10.0,East,4.6,-,N/A,,Clear,80,2013-09-15 04:53:00
11:53 PM,48.9,39.9,71,30.16,10.0,Calm,Calm,-,N/A,,Clear,0,2013-09-15 05:53:00